Shannon, Ireland

1:48 PM GMT on February 07, 2016 (GMT +0000)
Shannon

Weather History for EINN - June, 2013

Change the Weather History Date:

Sunday, June 9, 2013

  Actual Average Record
Temperature  
Mean Temperature 64 °F -  
Max Temperature 75 °F 65 °F 75 °F (2007)
Min Temperature 52 °F 51 °F 39 °F (2015)
Degree Days  
Heating Degree Days 2    
Growing Degree Days 14 (Base 50)    
Moisture  
Dew Point 53 °F    
Average Humidity 73    
Maximum Humidity 100    
Minimum Humidity 43    
Precipitation  
Precipitation 0.00 in 0.08 in - ()
Sea Level Pressure  
Sea Level Pressure 29.98 in    
Wind  
Wind Speed 7 mph ()    
Max Wind Speed 18 mph    
Max Gust Speed -    
Visibility 7.0 miles    
Events Fog    
Averages and records for this station are not official NWS values.
T = Trace of Precipitation, MM = Missing Value Source: Averaged Metar Reports

Daily Weather History Graph

Daily Weather History Graph

Search for Another Location

Airport or City:

Trip Planner

Search our weather history database for the weather conditions in past years. The results will help you decide how hot, cold, wet, or windy it might be!

Date:

Astronomy

Jun. 09, 2013 Rise Set
Actual Time 5:12 AM IST 9:57 PM IST
Civil Twilight 4:23 AM IST 10:47 PM IST
Nautical Twilight 3:02 AM IST 12:08 AM IST
Astronomical Twilight Sun does not rise Sun does not rise
Moon 6:07 AM IST (6/9) 10:23 PM IST (6/9)
Length of Visible Light 18h 24m
Length of Day
16h 45m
New Moon, 1% of the Moon is Illuminated
Jun 9
New Moon
Jun 16
First Quarter
Jun 23
Full
Jun 30
Last Quarter
Jul 8
New

Hourly Weather History & Observations

Time (IST) Temp. Dew Point Humidity Pressure Visibility Wind Dir Wind Speed Gust Speed Precip Events Conditions
12:00 AM 59.0 °F 53.6 °F 82% 30.09 in - WSW 8.1 mph - N/A   Clear
12:30 AM 57.2 °F 53.6 °F 88% 30.09 in - WSW 6.9 mph - N/A   Clear
1:00 AM 57 °F 54 °F 88% 30.09 in 16 mi WSW 8.9 mph - -   Scattered Clouds
1:00 AM 57.2 °F 53.6 °F 88% 30.06 in - WSW 9.2 mph - N/A   Clear
1:30 AM 57.2 °F 53.6 °F 88% 30.06 in - West 8.1 mph - N/A   Clear
2:00 AM 57.2 °F 55.4 °F 94% 30.06 in - WSW 8.1 mph - N/A   Clear
2:30 AM 57.2 °F 55.4 °F 94% 30.06 in - WSW 5.8 mph - N/A   Clear
3:00 AM 55.4 °F 53.6 °F 94% 30.06 in - WSW 2.3 mph - N/A   Clear
3:30 AM 55.4 °F 53.6 °F 94% 30.04 in - SW 4.6 mph - N/A   Clear
4:00 AM 55.4 °F 53.6 °F 94% 30.04 in - WSW 4.6 mph - N/A   Clear
4:30 AM 55.4 °F 53.6 °F 94% 30.04 in 6.2 mi WSW 4.6 mph - N/A Fog Shallow Fog
5:00 AM 53.6 °F 53.6 °F 100% 30.04 in 6.2 mi WSW 3.5 mph - N/A Fog Shallow Fog
5:30 AM 53.6 °F 53.6 °F 100% 30.04 in 6.2 mi Calm Calm - N/A Fog Shallow Fog
6:00 AM 53.6 °F 51.8 °F 94% 30.04 in 6.2 mi Calm Calm - N/A Fog Shallow Fog
6:30 AM 53.6 °F 53.6 °F 100% 30.04 in 6.2 mi WSW 4.6 mph - N/A   Partly Cloudy
7:00 AM 55 °F 53 °F 92% 30.03 in 7 mi SSE 2.2 mph - -   Mist
7:00 AM 55.4 °F 53.6 °F 94% 30.01 in 6.2 mi SSE 2.3 mph - N/A   Partly Cloudy
7:30 AM 55.4 °F 51.8 °F 88% 30.01 in 6.2 mi SE 2.3 mph - N/A   Partly Cloudy
8:00 AM 57.2 °F 53.6 °F 88% 30.01 in 6.2 mi ESE 2.3 mph - N/A   Partly Cloudy
8:30 AM 57.2 °F 53.6 °F 88% 30.01 in 6.2 mi ESE 6.9 mph - N/A   Partly Cloudy
9:00 AM 59.0 °F 53.6 °F 82% 30.01 in 6.2 mi ESE 5.8 mph - N/A   Partly Cloudy
9:30 AM 60.8 °F 53.6 °F 77% 30.01 in 6.2 mi ESE 4.6 mph - N/A   Partly Cloudy
10:00 AM 62.6 °F 55.4 °F 77% 30.01 in - ESE 4.6 mph - N/A   Clear
10:30 AM 64.4 °F 55.4 °F 73% 30.01 in 6.2 mi ESE 5.8 mph - N/A   Partly Cloudy
11:00 AM 66.2 °F 55.4 °F 68% 29.98 in 6.2 mi East 6.9 mph - N/A   Partly Cloudy
12:00 PM 68.0 °F 53.6 °F 60% 29.98 in 6.2 mi ESE 6.9 mph - N/A   Partly Cloudy
12:30 PM 69.8 °F 53.6 °F 56% 29.98 in 6.2 mi East 6.9 mph - N/A   Partly Cloudy
1:00 PM 71 °F 53 °F 43% 29.97 in 16 mi ESE 8.9 mph - -   Scattered Clouds
1:00 PM 71.6 °F 53.6 °F 53% 29.95 in 6.2 mi ESE 8.1 mph - N/A   Partly Cloudy
1:30 PM 71.6 °F 51.8 °F 50% 29.95 in 6.2 mi ESE 8.1 mph - N/A   Partly Cloudy
2:00 PM 73.4 °F 53.6 °F 50% 29.95 in 6.2 mi East 8.1 mph - N/A   Partly Cloudy
2:30 PM 73.4 °F 53.6 °F 50% 29.92 in 6.2 mi ESE 9.2 mph - N/A   Partly Cloudy
3:00 PM 73.4 °F 53.6 °F 50% 29.92 in 6.2 mi ESE 11.5 mph - N/A   Partly Cloudy
3:30 PM 75.2 °F 51.8 °F 44% 29.92 in 6.2 mi SE 10.4 mph - N/A   Partly Cloudy
4:00 PM 75.2 °F 51.8 °F 44% 29.89 in 6.2 mi ESE 11.5 mph - N/A   Partly Cloudy
4:30 PM 75.2 °F 51.8 °F 44% 29.89 in 6.2 mi SSE 12.7 mph - N/A   Partly Cloudy
5:00 PM 73.4 °F 53.6 °F 50% 29.89 in 6.2 mi SSE 15.0 mph - N/A   Partly Cloudy
5:30 PM 71.6 °F 55.4 °F 57% 29.89 in 6.2 mi South 16.1 mph - N/A   Partly Cloudy
6:00 PM 69.8 °F 53.6 °F 56% 29.89 in 6.2 mi SSE 16.1 mph - N/A   Partly Cloudy
6:30 PM 69.8 °F 53.6 °F 56% 29.89 in 6.2 mi SSE 16.1 mph - N/A   Partly Cloudy
7:00 PM 69 °F 54 °F 50% 29.90 in 11 mi SSE 17.9 mph - -   Scattered Clouds
7:30 PM 68.0 °F 53.6 °F 60% 29.89 in 6.2 mi SSE 17.3 mph - N/A   Partly Cloudy
8:00 PM 66.2 °F 53.6 °F 64% 29.89 in 6.2 mi SSE 17.3 mph - N/A   Partly Cloudy
8:30 PM 64.4 °F 51.8 °F 64% 29.89 in - SSE 12.7 mph - N/A   Clear
9:00 PM 62.6 °F 51.8 °F 68% 29.89 in - SSE 15.0 mph - N/A   Clear
9:30 PM 62.6 °F 51.8 °F 68% 29.92 in - SE 13.8 mph - N/A   Clear
10:00 PM 60.8 °F 51.8 °F 72% 29.92 in - SE 16.1 mph - N/A   Clear
10:30 PM 59.0 °F 50.0 °F 72% 29.92 in - SSE 12.7 mph - N/A   Clear
11:00 PM 57.2 °F 51.8 °F 82% 29.92 in - SE 11.5 mph - N/A   Clear
11:30 PM 57.2 °F 50.0 °F 77% 29.89 in - SE 9.2 mph - N/A   Clear